User: anonymous   Login
Location: Unspecified
(0.0000°N, 0.0000°E)
Time: 21:04:26
(UTC+00:00)
Language:

STARLINK-36129 - Orbit

View from above orbital plane
View from above orbital plane
View from above satellite
View from above satellite

Ground track
Ground track

The orbit is defined by the following mean orbital elements,

1 66874U          26145.04969556 +.00000000 +00000-0 +57512-3 0 00009
2 66874  42.9978 272.2414 0000988 292.4610  67.6137 15.27587108    07
Epoch (UTC): 25 May 2026 01:11:33
Eccentricity: 0.0000988
inclination: 42.9978°
perigee height: 482 km
apogee height: 484 km
right ascension of ascending node: 272.2414°
argument of perigee: 292.4610°
revolutions per day: 15.27587108
mean anomaly at epoch: 67.6137°

The dashed part of the orbit path shows where the satellite is in the earth's shadow,  

DLR